Showing default

DEORBITSAIL, 40719

Orbit data source: Space-Track

DEORBITSAIL, 40719 is a payload satellite owned by Surrey Space Ctr (UK) in SSO that was launched on Fri, 10 Jul 2015 UTC via a PSLV-XL launch vehicle from the Sirharikota (SRI). Payloads include a variety of satellites, spacecraft, and rockets equipped with specific instruments for various scientific and technological missions. These include communications satellites like Starlink; space stations such as the ISS; scientific satellites like the Hubble; Earth observation satellites from companies like Planet Labs, Umbra, and HawkEye 360; GPS; miniature CubeSats for education and research; and military/defense satellites.

Loading next visibility...
DEORBITSAIL details
Identifier
40719, 2015-032E
Orbit
SSO
Last TLE update11 hours ago
Origin
Flag of UKSurrey Space Ctr (UK)
ManufacturerSurrey Space Ctr
MissionNon-operational Amateur Technology
Bus & MotorCUBESAT 3U, Unknown motor
Mass7 kg wet, 7 kg dry
Launch date (UTC)
2015-07-10 (9 years ago)
Launch vehicle
PSLV-XL
Launch site
Sirharikota (SRI)
Object type
Payload
Rocket body
Debris
Shape & HBRBox + 1 Sail, 7.1 m
Radar Cross Section0.039 m², Small (<0.1 m²)

Expand to show TLE details & history

TLE from 11 hours ago
0 DEORBITSAIL
1 40719U 15032E   24336.85548619  .00017142  00000-0  17004-2 0  9995
2 40719  97.6616 195.1401 0011589 309.2675  50.7515 14.91782137507047
Epoch: 2024-12-01T20:31Z
Definitive object data (Epoch: 2024-12-01T20:31:54.006Z)
Latitude-0.00006°
Longitude175.97738°
Altitude590.317 km
Speed7.568 km/s
True Right ascension13h 00m 33s
True Declination0° 00' 00"
Sunlit
Object was in daylight at TLE epoch
Visualization TLE readout
Latitude-38.59716°
Longitude-177.44285°
Altitude599.233 km
Speed7.563 km/s
Apparent Right ascension15h 18m 14s
Apparent Declination-42° 59' 57"
Sunlit
Object is in daylight
Visualization observer readout
Local Sidereal Time05:23:42
Azimuth107.82° ESE
Elevation-66.43°
Doppler factor1
Orbital elements
Apogee altitude597.468 km
Perigee altitude581.319 km
Semi-major axis6,967.53 km
Eccentricity0.0011589
Inclination97.6616°
RAAN195.1401°
Arg. of periapsis309.2675°
True anomaly50.85444°
Mean anomaly50.7515°
Eccentric anomaly50.80296°
Mean motion3.73186 °/min
BSTAR0.0017004
Orbital period96.47 mins
Loading maneuver chart data...
Loading historical data...
Loading historical data...
Loading historical data...
Loading historical data...
Loading historical data...
Loading historical data...
Loading historical data...

DEORBITSAIL Visibility forecast

Observer location: undefined°, undefined

Span
Click to sort rows by Start time (UTC) header in descending order
Start Az.
Max El. time (UTC)
Max El. Az.
Max El.
End time (UTC)
End Az.
7 mins2024-12-02 14:21:36.651Z145.149° SSE2024-12-02 14:25:36.651Z67.153° ENE35.204°2024-12-02 14:28:36.651Z4.997° NNE
7 mins2024-12-03 03:41:36.651Z10.321° NNE2024-12-03 03:44:36.651Z241.895° WSW44.768°2024-12-03 03:48:36.651Z195.582° SSW
|